GFSSGP_925_spd_348.txt.gz
Wind_Speed
9 12 12 7 3 4 9 13 12 3 8 4 6 4 16 9 6 7 10 15 27 25 20 19 18 17 17 18 18 18 19 19 20 21 20 18 20 21 24 25 24 24 23 21 23 24 25 26 27
11 13 11 3 4 9 9 15 16 5 8 10 9 5 4 6 8 11 8 22 27 22 19 20 18 19 18 19 19 19 20 21 22 22 22 22 20 22 23 23 22 22 22 22 23 24 24 25 25
10 16 3 4 5 12 9 14 15 10 10 8 5 5 5 5 9 8 22 22 27 24 21 20 20 19 20 20 19 20 21 22 23 22 21 24 23 21 22 22 21 21 22 22 22 23 23 23 25
11 5 4 8 13 16 14 11 9 9 6 6 10 8 5 11 5 14 24 20 29 25 20 20 20 20 20 19 19 20 21 22 21 22 23 23 24 24 21 20 20 21 21 22 22 21 23 24 22
15 4 6 8 15 16 18 15 18 10 8 5 6 8 4 7 16 24 22 28 26 20 21 21 21 20 20 20 19 19 20 22 23 25 25 24 21 21 21 19 21 22 22 22 22 21 21 22 21
4 5 8 15 17 14 18 9 4 14 11 9 9 8 4 8 12 20 20 23 22 22 22 21 21 21 20 19 19 20 21 22 25 25 20 18 19 20 21 20 21 23 21 21 21 20 21 22 23
7 8 14 14 15 16 16 9 11 7 10 9 13 5 5 8 10 19 26 23 23 24 23 24 22 21 21 22 22 22 22 21 18 17 20 20 21 21 21 20 21 22 21 20 20 20 22 23 23
4 5 16 14 16 17 11 12 12 9 10 13 10 7 7 12 14 19 22 24 24 24 25 25 25 25 25 24 22 19 19 20 19 19 22 23 21 20 21 19 20 21 20 22 20 20 22 23 22
7 5 14 18 19 18 11 8 8 6 13 8 6 6 20 29 24 23 23 22 22 24 27 27 25 23 25 23 22 22 21 21 22 23 22 23 22 20 18 19 20 21 20 20 20 22 23 22 19
8 9 14 14 12 12 11 10 8 7 13 9 16 20 29 26 21 18 20 19 22 25 28 27 28 27 26 29 28 25 24 22 23 21 19 20 18 20 20 19 18 19 20 22 22 21 21 18 14
12 14 13 16 15 12 13 9 6 8 8 11 20 18 18 22 17 14 17 21 23 25 25 26 25 23 23 28 27 26 22 21 18 16 16 19 18 21 20 19 18 19 22 22 17 13 10 8 9
10 12 16 15 18 11 17 11 9 9 8 15 22 19 17 16 14 16 19 21 26 27 26 25 23 22 22 25 23 22 21 18 16 14 12 19 19 17 15 16 15 15 13 14 13 12 11 12 10
13 14 17 17 8 8 16 12 10 8 5 18 23 19 16 14 16 16 20 21 26 24 24 24 21 23 24 21 21 20 18 17 17 17 16 17 18 16 15 13 12 13 11 11 11 13 13 12 11
7 16 19 5 12 6 16 9 12 5 15 22 21 17 15 16 18 16 21 18 23 23 25 22 19 20 21 20 19 17 19 18 17 16 15 16 17 16 16 13 13 12 11 10 11 11 12 12 11
9 11 9 9 11 4 11 8 9 9 17 19 18 15 13 14 20 17 21 21 22 23 25 22 22 23 21 21 19 15 18 17 16 16 15 14 15 14 14 13 14 11 12 11 12 11 10 10 10
1 8 11 10 8 7 9 10 12 12 17 15 17 15 13 10 20 21 19 21 23 22 24 24 25 22 19 20 18 15 17 16 15 16 14 13 14 13 13 12 12 12 13 11 10 10 9 9 8
1 6 16 14 12 9 6 14 10 10 15 13 15 14 13 10 9 14 22 20 19 23 24 24 24 24 22 19 16 15 15 15 14 14 14 13 13 12 11 11 10 11 12 11 10 10 9 9 9
4 4 12 14 16 8 10 13 14 9 14 12 13 15 12 11 9 14 20 24 19 21 24 22 18 18 20 17 16 16 15 14 13 13 14 14 13 12 11 11 9 11 11 11 10 10 9 8 8
9 2 18 16 12 11 11 14 12 9 12 14 14 15 14 12 12 15 19 26 15 22 26 23 25 20 20 19 19 17 15 14 13 13 13 13 12 12 11 11 12 11 11 11 11 11 11 10 9
14 12 12 10 15 8 9 12 10 3 13 15 15 16 15 12 12 13 15 23 14 22 22 24 23 20 19 19 18 17 16 14 13 13 12 12 12 13 12 11 12 12 11 12 12 12 12 10 12
6 19 15 13 9 5 13 5 7 5 4 13 11 12 13 15 16 13 18 19 21 23 23 25 22 21 20 18 18 16 15 14 15 14 14 13 11 13 13 12 11 10 10 10 12 13 12 11 12
8 13 15 13 8 6 9 5 7 10 9 12 14 14 14 14 14 13 16 19 21 19 23 25 23 25 21 19 20 19 19 18 18 16 15 14 13 12 14 12 11 10 11 11 13 14 14 13 12
4 5 7 9 8 7 7 6 6 12 8 10 13 13 13 15 15 17 18 19 21 19 27 24 22 24 23 21 21 22 20 18 18 17 16 15 16 14 13 14 13 12 12 13 13 13 15 15 13
4 3 11 6 3 3 7 7 6 9 13 12 12 11 12 14 12 14 22 23 20 26 23 26 27 27 24 22 22 23 21 20 20 21 20 20 17 16 15 15 15 15 15 15 16 15 15 17 17
5 8 1 3 3 3 6 5 7 10 13 19 18 16 16 16 16 13 15 23 23 25 25 27 26 24 25 24 26 26 25 24 20 23 25 24 23 21 20 20 19 20 20 19 18 18 18 17 19
15 9 4 4 6 5 6 6 5 3 6 17 16 19 17 16 15 15 16 24 24 26 29 26 26 25 26 26 27 27 25 25 26 22 24 26 27 28 24 25 23 21 23 23 22 21 21 20 19
12 10 3 5 4 4 4 1 3 3 4 5 13 12 11 9 8 14 15 21 22 24 27 27 25 26 27 31 31 28 27 28 28 28 30 29 29 28 27 24 27 27 25 25 26 27 27 25 24
4 5 2 1 4 5 7 7 5 7 8 7 10 15 10 8 7 7 10 14 14 18 17 19 21 20 25 25 29 32 31 27 30 27 29 29 28 32 33 30 28 28 30 28 29 31 31 31 31
1 2 2 3 4 5 5 6 9 15 13 14 10 14 11 9 8 7 8 11 12 8 10 11 10 13 11 14 18 27 30 33 29 29 27 26 26 25 31 34 34 31 31 33 32 33 34 34 35
3 4 7 3 4 2 3 5 4 7 14 17 16 8 9 9 7 6 9 9 7 9 4 6 7 6 6 7 6 7 10 22 25 28 29 28 27 31 29 32 34 34 33 34 35 35 37 37 37

GFSSGP_925_spd_351.txt.gz
Wind_Speed
13 10 9 4 2 4 4 8 1 9 4 3 7 13 9 5 4 5 16 26 27 25 21 19 19 21 22 21 21 19 19 20 22 21 21 24 24 27 26 26 25 25 24 25 26 26 28 27 27
15 9 5 1 4 4 5 13 5 8 5 8 11 7 8 4 4 9 16 28 24 27 23 20 21 22 23 23 21 21 22 23 23 24 24 24 27 26 25 24 24 24 24 26 26 26 27 29 27
18 9 3 5 4 10 6 8 15 3 5 5 6 8 4 4 3 4 30 28 28 24 24 22 22 24 24 23 22 23 24 24 24 24 24 25 26 27 25 24 24 24 23 25 25 26 27 27 27
9 2 3 4 8 6 7 13 8 8 2 7 7 9 4 7 7 17 33 30 29 23 25 24 24 24 25 23 22 22 22 22 22 23 25 24 24 24 24 24 24 24 24 24 25 26 25 26 24
6 1 3 4 8 8 10 4 5 9 6 7 4 4 4 6 23 26 33 34 30 27 25 24 24 24 23 23 22 23 23 23 23 21 24 25 25 26 23 25 24 24 24 24 25 24 24 24 24
6 3 5 11 11 6 18 7 8 5 7 7 7 6 1 3 20 28 31 30 27 28 25 24 23 24 23 23 23 21 22 23 25 24 23 22 25 25 24 25 25 23 23 23 24 25 26 25 24
6 4 6 8 10 9 19 10 8 7 5 4 13 6 2 3 14 29 26 26 27 26 25 25 24 24 23 22 22 23 24 24 23 19 20 23 24 24 24 24 25 22 22 20 24 26 24 23 25
4 3 5 8 13 13 7 12 9 8 5 9 10 8 8 10 20 30 26 26 25 26 27 26 25 25 25 24 22 23 24 20 20 22 25 25 25 24 23 24 22 23 22 22 25 27 26 29 26
6 5 10 9 13 15 7 7 7 7 9 5 4 9 21 26 30 29 30 29 28 26 27 27 28 28 28 27 24 22 22 23 24 25 24 24 24 23 22 23 23 22 21 23 27 26 24 24 19
8 7 8 4 6 14 9 8 9 8 10 6 15 16 33 29 26 23 23 22 25 29 28 27 28 29 28 27 25 24 25 25 25 24 24 23 22 23 23 21 22 20 22 24 27 24 19 16 14
3 9 3 13 8 10 9 7 5 18 6 11 20 21 21 23 19 20 21 23 26 32 28 28 29 28 29 29 28 25 26 26 25 22 20 20 22 22 22 21 22 25 26 26 23 17 14 16 19
7 10 9 9 2 4 9 10 8 12 8 14 22 23 20 18 15 19 23 27 31 27 33 31 28 29 31 32 29 29 27 22 18 20 17 19 21 20 21 22 25 22 18 17 15 14 12 13 14
5 15 10 16 9 8 7 10 11 9 17 20 21 18 19 16 15 20 22 30 30 31 33 29 28 28 30 29 28 27 23 21 19 17 19 19 20 19 20 20 19 17 15 15 14 14 14 13 13
1 2 17 4 7 8 9 3 8 6 23 21 21 19 18 17 15 18 19 26 29 30 34 31 29 30 31 27 26 24 22 20 19 20 18 18 16 16 16 16 16 15 14 13 14 15 13 13 12
3 3 11 6 5 6 15 2 10 19 20 21 17 16 17 15 18 21 22 23 32 31 32 29 31 31 26 26 22 25 24 22 21 19 19 20 19 19 18 19 19 17 16 15 15 16 13 15 14
2 3 11 8 5 7 9 10 13 23 21 18 18 16 15 15 18 21 26 24 28 31 30 29 33 29 26 23 22 24 22 22 21 18 17 19 17 18 18 18 18 17 15 16 16 14 13 11 11
4 10 8 4 13 11 4 11 6 17 19 17 16 16 14 14 13 20 26 29 23 31 31 30 30 30 27 24 23 23 23 22 22 20 19 18 17 15 15 16 16 16 15 14 13 13 12 12 10
5 7 8 7 13 7 4 8 9 10 18 16 14 14 14 13 12 21 28 29 28 27 29 31 28 24 25 22 21 20 21 21 20 21 20 19 17 15 14 13 13 16 15 14 13 13 13 12 12
11 6 6 14 12 10 11 10 9 10 15 14 13 13 13 12 10 21 27 30 26 27 33 32 32 28 26 24 25 23 23 23 21 18 20 19 18 14 16 14 14 15 16 15 15 14 13 14 13
12 9 8 4 17 4 7 11 11 11 12 16 16 15 16 13 12 15 21 24 21 25 29 33 32 31 27 28 28 27 24 22 21 19 19 17 17 15 16 14 15 14 14 14 15 15 14 12 16
4 4 3 10 15 2 7 1 7 3 7 10 9 10 15 12 15 13 18 23 22 25 30 34 32 33 32 29 27 25 22 21 20 20 22 19 18 17 15 14 15 15 14 16 16 17 16 16 15
5 12 14 14 5 4 3 4 2 4 10 14 14 14 18 12 10 11 17 21 23 25 29 30 31 30 31 29 30 30 27 24 25 23 21 19 17 16 18 16 15 15 16 16 19 18 17 16 15
6 15 12 5 5 2 4 5 4 6 10 10 14 18 18 13 14 15 19 22 25 28 31 31 29 28 28 26 29 29 28 26 24 23 21 20 19 17 20 19 18 17 17 18 18 18 18 18 16
14 9 5 6 2 3 4 5 2 8 13 9 14 15 15 14 14 14 20 23 24 27 31 32 27 29 28 24 28 29 27 26 24 26 24 23 23 21 19 20 20 19 18 18 19 17 17 19 19
15 12 3 2 2 3 3 4 7 11 11 17 18 17 17 17 15 15 16 22 26 29 31 32 31 30 32 29 27 29 28 27 26 28 27 26 25 25 24 22 22 22 21 20 19 21 21 21 21
8 7 4 6 7 4 5 5 6 11 14 15 16 20 20 18 15 15 18 26 26 31 33 33 33 33 36 33 31 30 29 28 29 29 31 29 28 29 28 27 25 23 23 24 23 23 24 24 23
6 5 5 6 1 4 4 4 3 4 7 14 15 12 12 15 15 14 15 22 24 26 31 34 33 31 34 35 32 32 31 30 29 27 31 31 31 32 31 30 30 28 26 27 27 28 28 29 27
6 2 1 1 7 6 5 4 6 8 10 14 16 17 15 13 11 12 12 17 18 20 25 29 28 29 29 32 33 33 31 30 31 31 30 32 31 33 34 34 32 31 32 31 31 33 30 33 31
1 3 3 2 4 5 4 9 6 14 12 15 17 17 18 12 7 7 10 16 18 18 17 17 20 23 24 23 26 30 31 35 34 33 33 32 34 33 33 35 34 33 33 33 35 34 35 34 34
3 2 2 4 3 2 3 5 5 6 15 17 16 13 9 12 10 7 10 15 14 16 16 15 10 12 13 16 19 21 25 28 26 25 22 26 29 28 28 29 33 37 38 37 35 37 38 39 38

GFSSGP_925_spd_354.txt.gz
Wind_Speed
14 4 6 3 4 3 4 7 2 4 2 1 1 8 11 4 3 4 10 14 29 27 23 24 24 23 23 23 21 21 22 23 21 21 21 23 24 25 25 26 25 24 25 26 27 27 26 27 27
18 9 3 2 5 5 5 5 7 8 2 10 8 5 6 4 4 10 13 28 31 27 24 24 27 25 24 23 21 21 23 23 22 23 23 24 25 24 25 25 25 24 23 26 27 26 26 27 28
17 13 4 4 4 13 8 7 17 5 7 4 6 6 4 4 6 14 20 31 31 27 25 25 27 27 25 23 23 24 24 24 24 25 23 25 24 23 24 25 25 25 26 26 27 24 22 21 25
12 4 0 4 14 5 9 8 8 4 4 2 8 9 4 5 4 17 31 31 30 27 24 26 27 28 26 25 25 25 26 25 25 26 27 25 24 23 25 25 26 24 24 26 24 23 24 27 28
11 2 4 8 8 5 8 5 9 8 7 4 3 5 3 4 18 36 32 32 31 26 25 25 27 27 26 26 25 25 24 24 25 25 22 24 23 23 25 27 24 24 24 24 21 23 26 26 24
5 4 8 14 12 7 14 7 7 9 5 7 7 6 3 5 31 32 32 31 30 28 26 25 26 26 26 26 26 25 24 23 22 23 25 24 24 23 25 26 25 24 24 22 21 22 24 24 25
8 5 13 17 10 8 18 10 7 7 9 4 12 6 6 7 29 33 33 32 30 28 27 25 25 25 25 26 26 25 24 24 23 23 22 23 24 25 24 26 25 24 24 23 21 23 23 23 25
4 4 3 9 17 15 7 10 10 12 4 6 5 8 12 9 31 32 33 32 31 28 27 27 26 26 26 25 24 25 26 25 23 24 25 23 24 23 24 23 23 24 25 25 21 24 24 22 20
5 6 13 8 16 14 6 11 2 5 10 3 3 6 24 30 36 33 30 30 31 29 28 28 27 26 27 27 26 26 22 22 24 25 26 25 25 25 23 23 24 24 28 27 25 27 25 21 19
8 6 15 4 7 13 8 7 8 7 7 5 6 15 26 32 31 27 24 22 26 30 29 28 28 29 29 29 28 26 26 28 28 27 24 24 23 23 22 21 21 25 26 26 25 22 15 16 18
7 22 4 12 3 9 7 6 3 17 5 9 19 24 20 27 24 24 22 24 26 31 30 30 31 31 30 29 29 29 29 28 25 25 23 23 23 22 22 21 22 26 26 25 21 18 16 18 17
9 11 5 9 4 3 7 7 4 20 8 12 27 28 20 19 18 25 24 25 29 28 32 33 32 31 30 31 30 30 30 27 26 23 21 23 22 21 21 23 23 24 26 22 17 17 18 17 19
18 15 5 6 1 5 6 6 11 5 16 19 20 19 21 18 20 25 29 28 29 31 33 33 32 31 32 32 32 32 27 23 25 22 20 22 23 22 24 26 23 21 20 17 14 15 14 15 18
6 8 15 4 1 3 4 4 3 4 20 21 22 17 21 19 21 24 26 27 29 31 33 32 32 33 34 33 33 29 23 24 23 20 21 21 22 24 25 23 19 17 15 15 14 14 14 15 15
9 9 10 7 2 2 6 7 8 19 21 26 24 18 18 13 22 26 30 31 32 33 33 34 33 33 33 32 31 26 26 23 24 23 22 22 21 22 22 21 18 16 15 15 17 15 13 14 17
9 5 12 8 2 5 2 17 7 22 23 23 23 17 17 13 17 21 26 31 34 34 28 34 31 33 30 31 28 27 24 23 23 22 21 20 21 19 20 20 18 18 17 16 17 16 15 14 14
4 9 11 9 3 1 3 7 9 15 19 22 21 18 16 13 11 19 24 30 36 37 32 32 33 36 30 29 27 25 22 24 23 22 22 22 21 21 22 21 20 19 18 18 18 17 16 15 13
5 7 9 9 6 7 15 6 7 12 19 20 19 17 15 14 14 19 24 28 36 34 35 36 36 33 31 26 29 30 28 24 23 22 21 23 21 20 20 20 20 19 19 18 17 16 14 13 12
7 13 8 6 10 4 10 5 9 11 15 17 16 18 15 14 9 18 25 30 31 32 32 39 39 36 31 30 33 31 30 27 25 24 22 22 21 19 18 19 19 20 19 18 17 16 15 14 14
11 12 5 3 12 1 6 5 10 11 10 17 18 18 17 14 10 15 20 26 29 28 31 33 35 38 37 33 29 31 30 27 25 24 23 23 22 22 20 18 18 20 19 18 19 18 17 15 17
7 7 4 5 6 5 7 6 10 5 4 9 10 14 17 15 16 16 17 23 27 28 30 34 35 36 35 32 25 25 26 24 25 25 25 25 22 20 22 20 17 19 20 20 21 20 19 16 19
4 6 11 9 4 2 4 5 5 8 12 11 10 11 18 17 10 16 19 22 27 28 31 34 38 38 36 34 33 33 28 24 27 30 27 24 23 21 21 19 18 19 20 20 20 20 19 18 17
5 9 12 10 5 4 9 3 3 3 8 11 9 11 14 17 11 13 17 24 26 30 32 34 38 35 37 36 38 35 30 30 26 27 28 25 24 22 22 22 20 21 21 20 20 21 22 19 18
18 10 13 4 4 3 4 4 3 10 12 8 12 13 16 17 12 12 15 23 24 26 29 33 34 38 32 35 35 35 34 32 26 28 29 28 26 26 23 24 23 21 20 20 21 21 22 22 20
9 8 3 2 3 3 2 4 6 10 13 16 18 17 16 17 13 13 14 20 24 28 30 30 35 33 36 38 37 37 37 34 31 31 31 30 28 28 28 26 25 24 23 22 21 22 23 23 24
11 4 4 6 6 3 2 6 6 12 12 16 17 20 19 19 16 15 16 20 24 28 31 32 33 33 35 39 37 39 38 36 34 33 34 32 32 32 30 29 28 27 26 24 24 24 24 25 24
4 2 2 5 2 3 4 5 7 4 9 9 11 13 14 14 14 15 16 22 23 28 30 34 33 32 36 39 36 38 38 37 37 33 34 33 31 31 31 31 32 30 29 29 29 28 27 28 29
5 3 1 2 5 4 4 4 9 9 14 16 16 17 17 16 16 14 16 25 26 30 32 30 32 32 32 34 32 36 36 36 34 33 33 34 33 31 32 31 32 33 32 31 31 32 32 32 33
3 3 2 3 4 5 4 10 6 9 13 14 16 16 16 16 17 16 16 20 24 24 28 26 25 25 26 28 31 33 38 37 35 33 33 34 33 36 35 34 35 36 35 35 36 35 35 35 36
4 6 5 3 4 3 2 5 3 3 9 14 18 17 16 17 16 9 10 18 22 23 24 27 25 24 23 22 25 24 25 32 34 34 33 33 35 35 37 37 36 38 37 36 36 37 36 37 37

GFSSGP_925_spd_357.txt.gz
Wind_Speed
14 12 5 3 2 3 5 7 4 5 5 4 5 5 10 2 5 4 8 14 26 26 24 25 24 25 24 23 21 20 20 21 21 21 20 22 23 23 23 23 24 23 23 24 23 24 25 26 27
13 11 2 2 4 5 8 5 11 8 6 9 6 4 5 2 2 10 14 20 29 26 25 26 25 25 26 25 23 22 21 22 22 22 21 23 24 24 23 23 24 23 23 23 23 24 24 25 25
15 16 2 4 5 16 8 6 11 7 13 5 5 6 3 4 6 15 14 31 30 27 25 26 26 25 26 24 23 24 22 22 22 22 23 24 23 23 23 24 23 24 24 23 23 24 26 25 23
9 3 3 4 27 12 8 8 11 7 3 5 5 9 3 3 10 12 32 32 31 27 25 27 26 25 24 24 24 25 24 24 24 24 22 23 22 23 24 25 25 23 23 22 21 18 24 23 23
9 3 5 8 25 6 7 5 8 7 8 6 6 7 4 1 7 29 33 32 30 27 26 27 26 25 24 24 25 25 26 26 25 26 23 23 22 22 24 26 25 24 22 20 22 23 23 25 22
6 3 8 17 23 6 10 7 9 8 7 7 6 7 4 8 28 31 32 32 30 28 26 27 27 25 25 25 26 26 26 25 26 23 22 23 22 22 23 25 26 24 20 21 23 23 21 22 21
8 12 11 26 15 8 19 9 7 7 9 6 10 6 4 13 23 33 33 31 30 28 27 27 26 25 25 26 25 25 25 24 23 23 23 23 22 22 22 25 24 23 19 20 22 22 23 21 21
4 8 12 8 12 13 9 10 7 9 3 7 5 9 10 18 29 32 33 31 29 28 27 28 28 27 25 25 24 25 24 25 25 23 23 23 23 23 25 22 23 22 20 21 22 22 20 19 17
4 9 19 5 14 12 6 6 3 3 12 3 1 6 17 32 33 31 28 27 29 28 28 28 29 28 27 26 25 25 26 26 26 25 25 25 24 24 23 22 24 24 21 21 22 21 20 16 16
6 10 17 7 5 9 6 7 10 6 4 4 9 17 29 33 33 29 27 24 24 27 29 29 29 29 29 28 28 28 26 26 27 25 24 24 24 23 22 22 25 25 21 22 21 21 19 16 18
8 8 17 9 4 9 5 7 6 16 7 9 21 22 22 27 24 24 24 27 27 31 30 30 30 31 31 31 29 27 27 27 26 24 24 24 23 23 22 21 25 27 25 24 18 16 15 16 17
7 10 11 3 2 2 5 4 6 20 8 15 27 28 24 19 16 23 26 28 29 31 31 30 30 31 31 30 28 28 28 28 27 25 23 23 23 23 21 22 25 26 25 20 15 13 19 17 16
19 14 12 15 4 3 3 6 8 7 10 15 21 23 23 19 19 23 23 23 29 32 32 32 32 32 32 30 29 29 29 28 26 24 22 22 22 22 22 23 24 25 23 18 16 15 16 16 15
6 12 12 14 5 2 3 4 4 2 18 22 24 21 19 18 22 23 25 26 28 30 32 33 32 31 32 32 31 30 28 26 25 23 22 21 20 22 24 24 23 23 18 14 14 14 14 16 15
13 11 9 16 5 2 1 1 5 15 19 25 23 21 19 17 23 24 26 29 30 32 35 34 32 31 32 33 32 30 26 26 23 21 23 22 22 24 25 22 20 19 17 15 13 14 14 15 14
6 6 13 13 12 4 3 7 6 18 22 23 21 17 18 17 18 24 25 26 29 31 35 34 32 32 33 34 32 28 24 26 22 21 24 23 23 23 23 20 18 16 15 16 15 14 15 15 16
2 4 13 12 5 4 6 3 5 19 20 22 18 17 18 13 12 22 28 27 31 31 34 35 33 35 34 33 29 25 26 24 23 23 24 23 22 22 20 19 18 17 17 16 16 15 15 15 14
4 7 15 9 12 6 5 7 7 15 18 19 18 16 16 15 14 21 28 31 36 35 33 37 35 36 33 32 29 26 24 24 24 23 23 22 22 20 20 20 19 19 19 18 18 16 15 14 13
13 12 21 8 13 10 4 7 8 17 15 16 15 17 17 15 11 18 24 28 32 37 32 35 35 38 36 35 31 30 29 26 25 24 23 23 23 22 22 21 20 20 20 20 19 17 16 14 13
13 11 13 14 11 9 6 8 4 8 9 16 19 15 16 13 9 15 21 25 30 32 33 33 34 39 35 36 33 29 29 27 26 25 24 24 24 23 23 23 22 21 21 21 20 19 17 13 15
3 4 5 11 10 12 9 3 1 7 5 10 14 18 20 19 16 14 18 23 27 29 32 33 33 36 33 34 32 28 28 27 26 28 27 26 25 24 22 21 21 22 23 23 22 20 18 17 17
4 2 13 14 5 4 3 1 2 6 9 13 14 10 16 15 13 12 15 21 27 29 30 33 36 31 35 34 34 34 30 24 25 31 30 27 26 25 24 22 21 20 23 22 21 21 19 18 16
4 4 11 10 8 3 2 2 5 7 5 9 13 11 15 15 15 15 17 21 23 28 31 33 34 33 37 37 34 33 29 29 28 30 28 27 26 25 24 25 23 21 23 22 22 22 22 21 19
9 16 11 7 3 2 3 3 4 9 20 9 13 12 13 17 13 14 20 22 22 27 30 32 34 33 35 38 38 36 31 31 28 29 29 29 28 26 25 25 25 23 23 23 22 22 22 23 21
10 5 3 2 1 3 7 5 9 6 17 14 15 14 14 13 14 13 15 22 23 26 28 28 32 32 35 38 36 36 37 35 33 31 33 32 30 30 29 26 26 26 25 24 23 23 24 24 24
6 3 4 6 6 4 7 7 7 12 15 14 16 19 17 17 16 16 16 22 21 26 28 29 31 32 35 36 36 34 32 35 35 33 34 33 33 31 30 28 27 27 27 26 25 24 24 23 24
4 3 2 5 2 4 5 4 8 4 7 9 10 11 16 16 12 14 14 21 22 26 30 31 30 32 33 35 33 33 35 34 34 33 31 33 32 31 29 29 29 28 29 28 27 27 27 26 26
4 3 1 1 5 6 3 3 7 10 17 16 16 19 18 17 16 14 14 24 27 26 30 29 29 32 28 28 34 32 34 34 33 32 31 31 31 30 30 30 30 31 31 30 29 30 30 30 31
0 4 2 0 3 3 2 5 4 9 9 15 13 11 12 14 16 15 15 26 27 24 29 27 26 25 25 26 29 32 32 32 34 34 33 33 32 32 31 31 31 32 34 34 34 34 33 32 35
5 6 5 3 3 1 1 4 3 3 4 7 17 17 15 14 16 14 15 18 20 24 27 28 29 29 28 28 28 31 31 31 31 33 37 35 35 34 34 35 36 36 36 37 36 36 37 36 36

GFSSGP_925_spd_360.txt.gz
Wind_Speed
11 10 8 4 2 2 6 7 3 3 3 5 7 6 10 4 7 5 10 15 28 31 26 27 25 24 23 22 23 26 22 19 19 20 22 22 22 22 23 24 23 22 22 24 24 25 25 26 26
12 6 2 1 3 7 14 7 9 7 5 8 6 4 4 4 3 5 16 21 29 30 27 27 26 26 25 23 22 24 22 20 20 20 21 22 21 21 23 23 24 23 22 22 23 24 25 25 24
13 12 4 4 4 18 12 10 9 4 8 4 5 4 6 8 5 18 7 30 33 28 28 27 26 26 26 23 24 24 23 22 21 21 23 22 21 21 21 23 24 23 22 23 23 23 23 24 22
7 5 2 6 24 33 8 9 9 7 4 2 3 7 2 3 16 12 25 32 34 29 28 27 26 26 26 23 23 23 24 23 22 23 23 20 20 21 21 23 22 23 24 22 22 22 23 23 22
9 3 7 10 31 9 4 8 12 8 8 5 4 8 3 5 6 22 30 32 33 29 27 26 26 26 24 23 24 24 24 25 24 22 22 21 20 21 23 22 19 22 22 19 21 20 21 21 21
5 4 7 21 33 10 6 6 9 8 6 6 5 5 4 5 21 28 30 31 30 30 29 26 26 25 24 23 24 25 25 26 25 23 22 21 22 22 22 23 18 21 21 21 20 20 20 19 19
7 9 21 24 28 4 6 7 8 13 8 5 9 5 4 10 24 27 28 29 29 28 29 27 25 25 24 24 24 25 25 26 25 22 22 21 21 24 23 22 19 20 20 21 20 20 19 19 20
6 8 26 16 23 16 7 7 8 8 6 2 6 8 7 16 27 28 28 26 25 27 28 27 25 25 25 25 25 26 26 24 22 23 22 22 22 22 24 22 19 20 20 21 20 18 18 18 19
3 6 15 36 17 15 6 8 2 2 10 1 8 6 7 33 31 28 26 23 23 26 28 28 27 26 26 25 24 24 24 24 23 23 23 23 23 24 23 20 19 19 18 19 18 17 17 17 17
5 9 23 15 1 10 6 5 9 5 4 3 4 8 30 31 32 29 26 25 25 26 27 29 28 27 27 27 27 27 26 26 24 24 25 24 24 23 22 21 20 19 19 20 19 18 16 15 17
5 8 13 10 21 13 9 6 6 11 8 7 19 20 24 28 26 24 25 25 26 26 26 29 29 29 30 29 29 28 27 26 24 23 24 25 24 22 22 22 24 21 20 20 19 16 14 15 16
6 14 14 12 14 5 9 8 5 12 7 12 20 29 23 22 20 26 25 26 27 27 30 30 31 30 30 31 29 29 28 27 25 23 23 24 24 23 22 23 23 21 21 20 17 15 14 14 13
14 15 13 16 18 13 6 9 10 13 7 17 20 27 25 21 21 24 25 26 28 26 29 31 31 31 31 31 30 28 27 27 26 25 23 22 23 23 21 23 23 21 19 15 14 15 15 14 13
3 12 18 14 19 12 3 3 9 4 12 20 27 26 25 25 27 26 26 24 27 26 30 33 32 32 32 31 29 28 28 27 26 24 22 21 21 22 22 25 24 21 16 15 13 15 15 14 12
8 10 16 12 18 7 3 1 6 7 16 26 25 23 23 22 28 25 27 26 29 27 31 34 34 32 32 30 28 28 28 27 25 23 22 21 20 21 23 24 24 21 15 15 13 13 14 14 13
6 2 9 14 12 5 3 13 4 16 19 25 26 22 22 22 23 25 25 26 27 26 29 34 34 33 32 31 30 29 28 26 24 22 22 21 20 21 23 23 23 19 15 13 13 13 14 14 13
4 6 13 10 14 6 4 2 4 15 21 21 22 20 18 16 16 23 25 26 27 28 31 33 34 34 32 31 30 28 26 26 22 21 23 22 22 23 22 21 19 18 15 14 13 13 13 14 14
6 8 9 11 11 21 4 3 7 13 18 20 18 16 16 15 15 26 27 26 26 33 34 34 33 32 33 32 30 27 23 25 22 21 24 23 23 23 21 19 17 17 16 16 15 13 12 12 11
3 5 14 7 8 4 3 6 7 9 14 16 16 15 16 16 9 25 25 27 30 32 34 33 31 32 34 34 32 27 27 26 23 23 23 23 23 23 22 20 18 18 18 17 17 16 13 12 11
12 9 10 3 17 5 8 5 4 9 9 18 21 16 17 14 11 17 23 26 31 31 31 33 33 33 34 34 32 26 30 26 26 24 23 24 22 22 21 21 21 19 20 19 20 18 15 12 12
8 13 14 7 11 6 5 5 1 2 6 7 13 17 16 18 16 16 19 25 28 30 32 32 33 35 36 33 28 23 26 24 24 26 25 24 23 22 21 21 20 20 21 21 21 19 17 14 15
4 14 18 14 6 3 4 2 3 3 9 7 10 11 14 14 11 13 17 22 30 31 30 33 36 36 36 35 31 31 28 20 25 28 26 24 24 23 22 21 21 22 21 22 21 20 18 16 14
2 7 12 10 7 5 2 2 2 8 6 10 6 11 15 17 15 14 14 23 23 28 31 31 34 32 33 38 34 31 29 28 23 26 27 25 25 25 25 23 21 21 20 20 21 21 20 18 16
5 8 8 4 3 2 3 2 4 7 15 20 16 13 14 15 15 12 14 20 19 24 28 30 32 32 35 35 36 33 26 28 26 27 28 28 27 27 27 25 24 23 21 20 21 20 20 21 20
0 4 2 3 3 1 7 4 8 4 9 16 17 17 12 13 15 14 12 18 23 22 25 28 32 31 36 36 38 36 35 32 31 29 31 31 29 30 29 27 26 26 24 21 21 21 22 22 23
2 2 1 5 5 3 2 7 6 10 10 9 15 14 13 12 15 18 17 18 22 24 25 28 30 30 33 37 38 38 36 32 34 34 34 33 32 32 29 27 26 25 25 23 23 23 23 23 24
2 3 2 4 3 4 5 6 8 3 7 13 15 18 19 19 14 15 15 21 23 24 26 28 28 28 30 34 32 31 33 35 34 31 32 30 30 30 29 27 28 27 25 26 25 25 26 25 25
4 4 3 1 4 4 1 4 5 4 11 11 14 17 17 17 16 13 14 24 26 28 25 28 31 33 32 33 32 32 37 35 32 31 29 29 26 28 29 28 27 27 28 27 26 27 28 27 28
1 2 1 1 1 2 0 5 5 5 5 13 14 12 10 12 14 14 14 24 28 27 28 28 30 27 27 30 33 32 33 35 31 31 27 27 28 28 29 29 27 28 28 29 29 30 31 30 30
6 7 5 3 2 2 2 5 1 7 5 3 7 5 5 9 13 13 14 20 23 26 26 27 27 27 26 26 28 31 34 32 31 32 30 30 31 30 30 29 29 29 30 31 32 32 33 33 34